1536357600.59,29874,18.0,74014.3,0.51,-5.31,-6.47,0,*4B
1536357601.79,29875,18.0,74014.0,0.53,-5.27,-6.47,0,*4F
1536357603.0,29876,18.0,74014.3,0.51,-5.39,-6.55,0,*42
1536357604.2,29877,18.0,74018.5,0.51,-5.39,-6.59,0,*4F
1536357605.42,29878,18.0,74016.0,0.51,-5.51,-6.81,0,*4B
1536357606.63,29879,18.0,74018.8,0.51,-5.55,-6.85,0,*4A
1536357607.82,29880,18.0,74014.3,0.51,-5.43,-6.69,0,*49
1536357609.0,29881,18.0,74012.5,0.53,-5.43,-6.81,0,*4C
1536357610.2,29882,18.0,74016.5,0.51,-5.43,-6.69,0,*4B
1536357611.41,29883,18.0,74018.8,0.51,-5.55,-6.73,0,*46
1536357612.61,29884,18.0,74018.5,0.53,-5.65,-6.89,0,*45
1536357613.81,29885,18.0,74018.3,0.51,-5.43,-6.69,0,*4C
1536357614.99,29886,18.0,74016.5,0.53,-5.39,-6.59,0,*43
1536357616.19,29887,18.0,74014.8,0.53,-5.31,-6.55,0,*46
1536357617.43,29888,18.0,74014.5,0.51,-5.31,-6.59,0,*47
1536357618.63,29889,18.0,74016.8,0.51,-5.43,-6.73,0,*4B
1536357619.83,29890,18.0,74016.0,0.51,-5.43,-6.73,0,*43
1536357621.05,29891,18.0,74016.0,0.51,-5.55,-6.81,0,*48
1536357622.27,29892,18.0,74016.5,0.53,-5.69,-7.01,0,*4F
1536357623.5,29893,18.0,74012.8,0.53,-5.77,-6.97,0,*4F
1536357624.71,29894,18.0,74020.0,0.51,-5.55,-6.89,0,*45
1536357625.93,29895,18.0,74016.0,0.51,-5.55,-6.81,0,*4C
1536357627.11,29896,18.0,74016.3,0.53,-5.55,-6.81,0,*4D
1536357628.3,29897,18.0,74016.3,0.53,-5.51,-6.81,0,*48
1536357629.47,29898,18.0,74020.5,0.53,-5.43,-6.69,0,*42
1536357630.64,29899,18.0,74018.3,0.53,-5.39,-6.59,0,*4D
1536357631.84,29900,18.0,74018.3,0.53,-5.65,-6.85,0,*44
1536357633.06,29901,18.0,74020.0,0.51,-5.55,-6.85,0,*44
1536357634.26,29902,18.0,74022.3,0.53,-5.65,-6.85,0,*46
1536357635.44,29903,18.0,74016.5,0.53,-5.55,-6.81,0,*40
1536357636.63,29904,18.0,74018.5,0.53,-5.51,-6.81,0,*43
1536357637.86,29905,18.0,74018.3,0.53,-5.65,-6.97,0,*42
1536357639.06,29906,18.0,74020.3,0.53,-5.65,-6.89,0,*4E
1536357640.23,29907,18.0,74018.8,0.53,-5.39,-6.55,0,*47
1536357641.44,29908,18.0,74016.8,0.51,-5.39,-6.59,0,*46
1536357642.67,29909,18.0,74018.5,0.51,-5.65,-6.89,0,*43
1536357643.93,29910,18.0,74016.3,0.51,-5.69,-7.01,0,*46
1536357645.15,29911,18.0,74012.5,0.53,-5.77,-7.01,0,*4A
1536357646.41,29912,18.0,74018.3,0.51,-5.69,-7.01,0,*44
1536357647.66,29913,18.0,74018.5,0.51,-5.77,-7.01,0,*4A
1536357648.9,29914,18.0,74016.3,0.51,-5.89,-7.11,0,*4D
1536357650.16,29915,18.0,74018.0,0.51,-5.77,-7.01,0,*4C
1536357651.37,29916,18.0,74016.0,0.51,-5.55,-6.85,0,*42
1536357652.6,29917,18.0,74016.5,0.51,-5.69,-7.11,0,*40
1536357653.86,29918,18.0,74018.3,0.51,-5.65,-6.97,0,*4C
1536357655.08,29919,18.0,74016.0,0.51,-5.55,-6.81,0,*49
1536357656.28,29920,18.0,74016.5,0.51,-5.43,-6.69,0,*42
1536357657.48,29921,18.0,74012.8,0.51,-5.43,-6.73,0,*48
1536357658.68,29922,18.0,74014.5,0.51,-5.51,-6.73,0,*48
1536357659.89,29923,18.0,74016.3,0.51,-5.55,-6.89,0,*48
1536357661.1,29924,18.0,74012.5,0.51,-5.51,-6.73,0,*4E
1536357662.31,29925,18.0,74014.3,0.51,-5.51,-6.73,0,*4F
1536357663.52,29926,18.0,74018.5,0.51,-5.51,-6.81,0,*41
1536357664.73,29927,18.0,74016.3,0.51,-5.51,-6.89,0,*48
1536357665.96,29928,18.0,74018.5,0.51,-5.77,-6.89,0,*43
1536357667.22,29929,18.0,74018.3,0.51,-5.65,-7.01,0,*40
1536357668.47,29930,18.0,74016.8,0.51,-5.69,-6.97,0,*4A
1536357669.69,29931,18.0,74018.3,0.51,-5.51,-6.81,0,*47
1536357670.89,29932,18.0,74014.8,0.51,-5.43,-6.73,0,*4A
1536357672.1,29933,18.0,74012.3,0.47,-5.47,-6.89,0,*4D
1536357673.29,29934,18.0,74016.8,0.51,-5.43,-6.69,0,*47
1536357674.5,29935,18.0,74014.0,0.51,-5.51,-6.73,0,*4E
1536357675.71,29936,18.0,74016.0,0.51,-5.43,-6.81,0,*43
1536357676.91,29937,18.0,74018.3,0.51,-5.43,-6.73,0,*4F
1536357678.11,29938,18.0,74014.3,0.47,-5.47,-6.73,0,*43
1536357679.33,29939,18.0,74016.5,0.51,-5.51,-6.81,0,*4F
1536357680.54,29940,18.0,74016.8,0.51,-5.43,-6.81,0,*42
1536357681.76,29941,18.0,74016.3,0.53,-5.65,-6.97,0,*42
1536357683.02,29942,18.0,74020.3,0.51,-5.69,-7.01,0,*41
1536357684.26,29943,18.0,74016.8,0.51,-5.77,-7.11,0,*4E
1536357685.43,29944,18.0,74018.3,0.53,-5.51,-6.73,0,*4A
1536357686.64,29945,18.0,74016.5,0.51,-5.39,-6.59,0,*4F
1536357687.89,29946,18.0,74016.5,0.51,-5.77,-6.97,0,*44
1536357689.15,29947,18.0,74018.5,0.47,-5.81,-7.05,0,*41
1536357690.4,29948,18.0,74018.0,0.51,-5.81,-6.97,0,*43
1536357691.63,29949,18.0,74018.3,0.45,-5.73,-6.93,0,*4E
1536357692.89,29950,18.0,74016.8,0.47,-5.69,-6.93,0,*4F
1536357694.14,29951,18.0,74016.5,0.47,-5.73,-7.01,0,*4F
1536357695.39,29952,18.0,74020.0,0.47,-5.73,-6.93,0,*46
1536357696.6,29953,18.0,74012.8,0.45,-5.81,-7.15,0,*47
1536357697.85,29954,18.0,74016.8,0.47,-5.81,-7.05,0,*43
1536357699.1,29955,18.0,74022.3,0.47,-5.73,-6.93,0,*41
1536357700.28,29956,18.0,74016.3,0.45,-5.47,-6.85,0,*40
1536357701.49,29957,18.0,74018.0,0.47,-5.47,-6.77,0,*4E
1536357702.7,29958,18.0,74018.0,0.47,-5.55,-6.77,0,*42
1536357703.91,29959,18.0,74018.8,0.47,-5.55,-6.85,0,*4E
1536357705.12,29960,18.0,74018.0,0.47,-5.47,-6.77,0,*4A
1536357706.33,29961,18.0,74018.5,0.47,-5.55,-6.89,0,*49
1536357707.54,29962,18.0,74016.8,0.47,-5.47,-6.85,0,*45
1536357708.75,29963,18.0,74016.8,0.47,-5.47,-6.85,0,*44
1536357709.96,29964,18.0,74018.5,0.47,-5.55,-6.77,0,*4D
1536357711.17,29965,18.0,74018.3,0.47,-5.47,-6.59,0,*43
1536357712.38,29966,18.0,74018.3,0.47,-5.35,-6.51,0,*4D
1536357713.61,29967,18.0,74020.5,0.47,-5.31,-6.59,0,*40
1536357714.82,29968,18.0,74020.8,0.47,-5.35,-6.59,0,*4B
1536357716.02,29969,18.0,74016.8,0.47,-5.43,-6.73,0,*43
1536357717.25,29970,18.0,74020.5,0.51,-5.69,-6.89,0,*41
1536357718.48,29971,18.0,74022.0,0.51,-5.65,-6.89,0,*4C
1536357719.72,29972,18.0,74020.5,0.47,-5.69,-6.89,0,*44
1536357720.92,29973,18.0,74022.5,0.47,-5.43,-6.59,0,*40
1536357722.13,29974,18.0,74022.3,0.47,-5.35,-6.59,0,*46
1536357723.33,29975,18.0,74016.3,0.47,-5.47,-6.77,0,*4E
1536357724.57,29976,18.0,74020.3,0.51,-5.31,-6.55,0,*4B
1536357725.8,29977,18.0,74018.0,0.51,-5.19,-6.47,0,*43
1536357727.01,29978,18.0,74020.5,0.51,-5.39,-6.55,0,*4D
1536357728.24,29979,18.0,74018.0,0.51,-5.31,-6.55,0,*44
1536357729.42,29980,18.0,74016.3,0.53,-5.39,-6.59,0,*44
1536357730.65,29981,18.0,74022.0,0.51,-5.31,-6.59,0,*4F
1536357731.83,29982,18.0,74022.0,0.53,-5.43,-6.73,0,*43
1536357733.04,29983,18.0,74018.8,0.51,-5.51,-6.81,0,*4E
1536357734.22,29984,18.0,74020.5,0.53,-5.51,-6.73,0,*46
1536357735.43,29985,18.0,74020.0,0.51,-5.55,-6.85,0,*48
1536357736.66,29986,18.0,74022.3,0.51,-5.65,-6.89,0,*44
1536357737.89,29987,18.0,74022.8,0.53,-5.65,-6.97,0,*48
1536357739.1,29988,18.0,74026.3,0.51,-5.55,-6.73,0,*4C
1536357740.29,29989,18.0,74018.3,0.51,-5.43,-6.69,0,*41
1536357741.49,29990,18.0,74022.3,0.51,-5.43,-6.69,0,*49
1536357742.69,29991,18.0,74018.5,0.51,-5.43,-6.59,0,*4B
1536357743.86,29992,18.0,74022.5,0.53,-5.39,-6.69,0,*44
1536357745.08,29993,18.0,74020.8,0.51,-5.55,-6.73,0,*46
1536357746.31,29994,18.0,74018.0,0.51,-5.65,-6.85,0,*4B
1536357747.56,29995,18.0,74018.8,0.51,-5.77,-6.97,0,*4A
1536357748.82,29996,18.0,74020.3,0.51,-5.69,-6.97,0,*46
1536357750.05,29997,18.0,74020.3,0.51,-5.69,-6.85,0,*44
1536357751.26,29998,18.0,74016.8,0.51,-5.55,-6.85,0,*44
1536357752.49,29999,18.0,74018.8,0.51,-5.69,-6.89,0,*46
1536357753.73,30000,18.0,74018.5,0.51,-5.69,-7.11,0,*47
1536357754.98,30001,18.0,74020.5,0.47,-5.73,-7.01,0,*4B
1536357756.24,30002,18.0,74016.8,0.47,-5.81,-7.01,0,*45
1536357757.49,30003,18.0,74018.5,0.47,-5.81,-7.05,0,*40
1536357758.71,30004,18.0,74016.3,0.45,-5.73,-7.05,0,*48
1536357759.94,30005,18.0,74020.3,0.47,-5.61,-6.89,0,*4D
1536357761.12,30006,18.0,74016.5,0.45,-5.47,-6.73,0,*4D
1536357762.31,30007,18.0,74018.5,0.45,-5.55,-6.85,0,*46
1536357763.56,30008,18.0,74020.3,0.47,-5.69,-7.01,0,*49
1536357764.79,30009,18.0,74016.8,0.45,-5.73,-6.93,0,*4B
1536357766.02,30010,18.0,74022.0,0.47,-5.61,-6.85,0,*45
1536357767.22,30011,18.0,74020.8,0.47,-5.47,-6.85,0,*40
1536357768.41,30012,18.0,74022.0,0.45,-5.55,-6.85,0,*42
1536357769.64,30013,18.0,74020.5,0.47,-5.61,-6.85,0,*46
1536357770.85,30014,18.0,74016.8,0.47,-5.47,-6.77,0,*48
1536357772.06,30015,18.0,74018.3,0.47,-5.55,-6.85,0,*47
1536357773.24,30016,18.0,74022.8,0.45,-5.47,-6.77,0,*48
1536357774.45,30017,18.0,74020.8,0.45,-5.47,-6.63,0,*4C
1536357775.68,30018,18.0,74022.0,0.47,-5.43,-6.63,0,*45
1536357776.89,30019,18.0,74018.5,0.47,-5.55,-6.77,0,*46
1536357778.08,30020,18.0,74022.5,0.45,-5.47,-6.73,0,*49
1536357779.28,30021,18.0,74022.0,0.47,-5.47,-6.73,0,*4A
1536357780.47,30022,18.0,74018.0,0.45,-5.55,-6.77,0,*4C
1536357781.7,30023,18.0,74020.3,0.47,-5.61,-6.85,0,*45
1536357782.91,30024,18.0,74020.3,0.51,-5.43,-6.81,0,*41
1536357784.11,30025,18.0,74018.5,0.47,-5.47,-6.73,0,*4E
1536357785.32,30026,18.0,74018.3,0.47,-5.55,-6.85,0,*47
1536357786.54,30027,18.0,74018.5,0.51,-5.51,-6.81,0,*41
1536357787.74,30028,18.0,74016.5,0.51,-5.43,-6.73,0,*40
1536357788.94,30029,18.0,74020.8,0.51,-5.43,-6.69,0,*4A
1536357790.14,30030,18.0,74016.5,0.47,-5.47,-6.73,0,*4A
1536357791.4,30031,18.0,74020.8,0.47,-5.69,-7.01,0,*43
1536357792.61,30032,18.0,74022.8,0.47,-5.55,-6.85,0,*42
1536357793.81,30033,18.0,74018.3,0.51,-5.39,-6.69,0,*4C
1536357795.02,30034,18.0,74022.3,0.47,-5.55,-6.89,0,*48
1536357796.23,30035,18.0,74022.0,0.47,-5.47,-6.77,0,*4B
1536357797.44,30036,18.0,74020.0,0.47,-5.55,-6.77,0,*4B
1536357798.7,30037,18.0,74016.0,0.47,-5.81,-7.01,0,*43
1536357799.93,30038,18.0,74022.5,0.47,-5.73,-6.89,0,*40
1536357801.13,30039,18.0,74018.8,0.45,-5.61,-6.89,0,*40
1536357802.31,30040,18.0,74018.0,0.45,-5.47,-6.73,0,*4F
1536357803.53,30041,18.0,74020.3,0.47,-5.55,-6.73,0,*4F
1536357804.78,30042,18.0,74020.5,0.47,-5.81,-7.01,0,*41
1536357806.01,30043,18.0,74020.5,0.45,-5.81,-7.05,0,*46
1536357807.26,30044,18.0,74020.5,0.47,-5.73,-7.01,0,*4A
1536357808.49,30045,18.0,74016.5,0.47,-5.61,-6.85,0,*45
1536357809.7,30046,18.0,74022.0,0.47,-5.55,-6.85,0,*41
1536357810.95,30047,18.0,74016.5,0.47,-5.81,-7.05,0,*40
1536357812.21,30048,18.0,74020.8,0.47,-5.69,-7.01,0,*4D
1536357813.44,30049,18.0,74018.8,0.45,-5.61,-6.93,0,*4C
1536357814.64,30050,18.0,74022.5,0.45,-5.61,-6.89,0,*4F
1536357815.87,30051,18.0,74016.3,0.45,-5.69,-6.93,0,*4D
1536357817.1,30052,18.0,74022.3,0.47,-5.61,-6.89,0,*4F
1536357818.29,30053,18.0,74018.3,0.45,-5.55,-6.85,0,*47
1536357819.5,30054,18.0,74020.8,0.45,-5.69,-6.89,0,*43
1536357820.72,30055,18.0,74022.8,0.45,-5.73,-6.93,0,*42
1536357821.96,30056,18.0,74018.8,0.45,-5.69,-7.01,0,*40
1536357823.19,30057,18.0,74018.0,0.45,-5.69,-6.93,0,*4B
1536357824.42,30058,18.0,74016.5,0.45,-5.81,-6.93,0,*42
1536357825.65,30059,18.0,74020.3,0.45,-5.85,-7.05,0,*49
1536357826.86,30060,18.0,74022.3,0.45,-5.81,-7.15,0,*46
1536357828.08,30061,18.0,74020.0,0.45,-5.93,-7.15,0,*44
1536357829.29,30062,18.0,74022.0,0.45,-5.93,-7.15,0,*47
1536357830.5,30063,18.0,74020.3,0.45,-5.85,-7.15,0,*41
1536357831.71,30064,18.0,74018.0,0.43,-5.89,-7.19,0,*40
1536357832.93,30065,18.0,74022.3,0.43,-5.77,-6.97,0,*47
1536357834.16,30066,18.0,74020.0,0.43,-5.77,-6.97,0,*44
1536357835.39,30067,18.0,74020.8,0.41,-5.77,-7.11,0,*48
1536357836.62,30068,18.0,74020.5,0.43,-5.73,-6.97,0,*4E
1536357837.84,30069,18.0,74022.3,0.41,-5.65,-6.89,0,*45
1536357839.04,30070,18.0,74018.8,0.43,-5.61,-6.89,0,*4B
1536357840.25,30071,18.0,74022.3,0.41,-5.51,-6.89,0,*4B
1536357841.47,30072,18.0,74022.3,0.43,-5.65,-6.93,0,*46
1536357842.7,30073,18.0,74016.8,0.43,-5.65,-6.93,0,*47
1536357843.92,30074,18.0,74016.5,0.43,-5.73,-7.05,0,*49
1536357845.17,30075,18.0,74018.0,0.41,-5.85,-6.97,0,*49
1536357846.38,30076,18.0,74016.5,0.45,-5.85,-7.15,0,*45
1536357847.62,30077,18.0,74020.0,0.41,-5.77,-7.11,0,*49
1536357848.85,30078,18.0,74020.0,0.41,-5.85,-7.11,0,*4B
1536357850.1,30079,18.0,74020.0,0.41,-5.77,-7.05,0,*42
1536357851.34,30080,18.0,74018.0,0.41,-5.73,-6.97,0,*4A
1536357852.59,30081,18.0,74020.3,0.41,-5.65,-6.93,0,*48
1536357853.82,30082,18.0,74018.8,0.41,-5.61,-6.89,0,*44
1536357855.02,30083,18.0,74022.0,0.43,-5.65,-6.89,0,*43
1536357856.27,30084,18.0,74018.8,0.41,-5.61,-6.93,0,*49
1536357857.48,30085,18.0,74018.0,0.43,-5.77,-7.11,0,*46
1536357858.73,30086,18.0,74016.3,0.41,-5.77,-6.97,0,*48
1536357859.95,30087,18.0,74016.5,0.43,-5.77,-6.97,0,*4B
1536357861.18,30088,18.0,74016.3,0.43,-5.65,-6.93,0,*43
1536357862.38,30089,17.94,74016.0,0.43,-5.61,-6.89,0,*4D
1536357863.63,30090,18.0,74020.5,0.41,-5.85,-7.05,0,*48
1536357864.88,30091,18.0,74020.5,0.41,-5.77,-6.97,0,*4E
1536357866.13,30092,18.0,74018.5,0.41,-5.77,-7.05,0,*47
1536357867.38,30093,18.0,74016.5,0.41,-5.65,-6.97,0,*4F
1536357868.6,30094,18.0,74018.0,0.41,-5.61,-6.89,0,*43
1536357869.84,30095,18.0,74016.5,0.41,-5.77,-7.05,0,*40
1536357871.1,30096,18.0,74016.8,0.41,-5.77,-6.97,0,*49
1536357872.35,30097,18.0,74016.3,0.41,-5.65,-6.93,0,*4F
1536357873.6,30098,18.0,74018.5,0.41,-5.65,-6.97,0,*44
1536357874.83,30099,18.0,74018.8,0.39,-5.65,-6.97,0,*4A
1536357876.03,30100,18.0,74020.3,0.41,-5.51,-6.77,0,*4D
1536357877.23,30101,18.0,74020.5,0.41,-5.39,-6.77,0,*42
1536357878.44,30102,18.0,74018.3,0.41,-5.47,-6.77,0,*48
1536357879.66,30103,18.0,74018.8,0.41,-5.61,-6.81,0,*44
1536357880.92,30104,18.0,74022.3,0.41,-5.65,-6.97,0,*40
1536357882.12,30105,18.0,74016.5,0.43,-5.39,-6.63,0,*41
1536357883.32,30106,18.0,74018.8,0.41,-5.47,-6.69,0,*43
1536357884.52,30107,18.0,74018.3,0.43,-5.61,-6.81,0,*42
1536357885.75,30108,18.0,74016.5,0.43,-5.65,-6.93,0,*4A
1536357886.93,30109,18.0,74016.8,0.43,-5.51,-6.89,0,*47
1536357888.13,30110,18.0,74020.8,0.41,-5.51,-6.77,0,*4C
1536357889.36,30111,18.0,74016.3,0.43,-5.65,-6.93,0,*42
1536357890.57,30112,18.0,74020.5,0.43,-5.65,-6.89,0,*4A
1536357891.77,30113,18.0,74020.3,0.41,-5.51,-6.77,0,*4F
1536357892.95,30114,18.0,74022.3,0.43,-5.47,-6.81,0,*44
1536357894.15,30115,18.0,74016.5,0.43,-5.61,-6.89,0,*49
1536357895.38,30116,18.0,74016.3,0.43,-5.65,-6.93,0,*45
1536357896.59,30117,18.0,74020.3,0.43,-5.47,-6.63,0,*4B
1536357897.76,30118,18.0,74016.3,0.43,-5.47,-6.69,0,*4E
1536357898.94,30119,18.0,74018.0,0.43,-5.39,-6.77,0,*49
1536357900.14,30120,18.0,74014.0,0.41,-5.47,-6.77,0,*48
1536357901.33,30121,18.0,74016.5,0.43,-5.51,-6.81,0,*45
1536357902.5,30122,18.0,74016.3,0.43,-5.47,-6.69,0,*47
1536357903.71,30123,18.0,74018.5,0.43,-5.61,-6.81,0,*44
1536357904.88,30124,18.0,74016.8,0.43,-5.39,-6.69,0,*48
1536357906.06,30125,18.0,74016.5,0.43,-5.51,-6.89,0,*49
1536357907.25,30126,18.0,74016.8,0.43,-5.51,-6.81,0,*42
1536357908.5,30127,18.0,74012.8,0.41,-5.65,-6.97,0,*41
1536357909.68,30128,18.0,74016.5,0.43,-5.51,-6.77,0,*45
1536357910.89,30129,18.0,74016.3,0.45,-5.31,-6.59,0,*48
1536357912.1,30130,18.0,74018.0,0.45,-5.35,-6.63,0,*4D
1536357913.3,30131,18.0,74018.8,0.45,-5.43,-6.63,0,*4D
1536357914.51,30132,18.0,74016.3,0.45,-5.61,-6.89,0,*4A
1536357915.69,30133,18.0,74020.0,0.45,-5.55,-6.85,0,*40
1536357916.9,30134,18.0,74018.0,0.47,-5.47,-6.73,0,*4F
1536357918.09,30135,18.0,74018.0,0.45,-5.55,-6.85,0,*46
1536357919.27,30136,18.0,74018.0,0.45,-5.43,-6.59,0,*43
1536357920.47,30137,18.0,74018.0,0.45,-5.43,-6.63,0,*4B
1536357921.65,30138,18.0,74016.0,0.43,-5.51,-6.89,0,*45
1536357922.84,30139,18.0,74016.0,0.45,-5.47,-6.89,0,*45
1536357924.06,30140,18.0,74018.5,0.47,-5.61,-6.85,0,*41
1536357925.25,30141,18.0,74018.8,0.45,-5.55,-6.85,0,*45
1536357926.44,30142,18.0,74018.0,0.45,-5.47,-6.77,0,*48
1536357927.62,30143,18.0,74018.0,0.45,-5.47,-6.73,0,*4D
1536357928.8,30144,18.0,74018.8,0.45,-5.47,-6.73,0,*4A
1536357930.01,30145,18.0,74018.5,0.45,-5.35,-6.63,0,*4F
1536357931.21,30146,18.0,74016.3,0.47,-5.43,-6.73,0,*4E
1536357932.39,30147,18.0,74016.3,0.45,-5.35,-6.51,0,*4C
1536357933.57,30148,18.0,74016.8,0.45,-5.43,-6.59,0,*4A
1536357934.79,30149,18.0,74018.5,0.45,-5.31,-6.51,0,*46
1536357935.97,30150,18.0,74016.5,0.45,-5.35,-6.51,0,*4A
1536357937.21,30151,18.0,74016.0,0.47,-5.31,-6.51,0,*4D
1536357938.44,30152,18.0,74016.8,0.47,-5.31,-6.51,0,*4E
1536357939.67,30153,18.0,74018.8,0.47,-5.43,-6.63,0,*4B
1536357940.9,30154,18.0,74018.0,0.47,-5.43,-6.63,0,*4C
1536357942.07,30155,18.0,74016.3,0.45,-5.43,-6.85,0,*47
1536357943.31,30156,18.0,74018.5,0.47,-5.69,-6.89,0,*42
1536357944.54,30157,18.0,74018.5,0.47,-5.61,-6.89,0,*4B
1536357945.76,30158,18.0,74016.5,0.47,-5.61,-6.89,0,*44
1536357946.95,30159,18.0,74018.5,0.45,-5.47,-6.73,0,*46
1536357948.2,30160,18.0,74022.0,0.47,-5.61,-6.93,0,*44
1536357949.46,30161,18.0,74018.0,0.47,-5.69,-6.93,0,*4D
1536357950.67,30162,18.0,74018.5,0.47,-5.55,-6.85,0,*46
1536357951.86,30163,18.0,74016.0,0.45,-5.55,-6.85,0,*45
1536357953.08,30164,18.0,74018.0,0.45,-5.73,-7.01,0,*4B
1536357954.31,30165,18.0,74016.5,0.47,-5.61,-6.85,0,*46
1536357955.54,30166,18.0,74018.0,0.45,-5.73,-7.01,0,*49
1536357956.76,30167,18.0,74018.5,0.45,-5.81,-7.05,0,*41
1536357958.0,30168,18.0,74016.8,0.45,-5.69,-6.93,0,*46
1536357959.2,30169,18.0,74020.5,0.45,-5.69,-6.89,0,*4C
1536357960.41,30170,17.94,74016.3,0.47,-5.47,-6.73,0,*4F
1536357961.6,30171,18.0,74016.3,0.45,-5.55,-6.77,0,*4B
1536357962.83,30172,18.0,74020.5,0.45,-5.61,-6.93,0,*45
1536357964.01,30173,18.0,74018.8,0.45,-5.47,-6.77,0,*4A
1536357965.22,30174,18.0,74018.0,0.45,-5.47,-6.63,0,*48
1536357966.43,30175,18.0,74018.8,0.47,-5.35,-6.51,0,*4F
1536357967.61,30176,18.0,74016.3,0.45,-5.43,-6.73,0,*4F
1536357968.81,30177,18.0,74016.8,0.45,-5.43,-6.63,0,*4F
1536357970.04,30178,18.0,74016.0,0.47,-5.43,-6.63,0,*42
1536357971.24,30179,18.0,74020.0,0.45,-5.43,-6.63,0,*41
1536357972.48,30180,18.0,74022.0,0.47,-5.69,-6.89,0,*49
1536357973.68,30181,18.0,74018.0,0.45,-5.69,-6.89,0,*4A
1536357974.92,30182,18.0,74016.8,0.47,-5.69,-6.89,0,*4B
1536357976.17,30183,18.0,74018.5,0.47,-5.69,-7.01,0,*4B
1536357977.38,30184,17.94,74018.8,0.47,-5.47,-6.73,0,*44
1536357978.56,30185,18.0,74018.8,0.45,-5.47,-6.77,0,*43
1536357979.75,30186,18.0,74022.3,0.45,-5.55,-6.89,0,*42
1536357980.94,30187,18.0,74022.3,0.45,-5.55,-6.77,0,*42
1536357982.14,30188,18.0,74018.8,0.47,-5.43,-6.77,0,*48
1536357983.34,30189,17.94,74016.5,0.47,-5.43,-6.73,0,*4D
1536357984.55,30190,18.0,74016.5,0.45,-5.61,-6.89,0,*42
1536357985.8,30191,17.94,74016.5,0.47,-5.61,-6.93,0,*4A
1536357987.01,30192,18.0,74018.3,0.45,-5.69,-6.89,0,*48
1536357988.24,30193,18.0,74016.5,0.45,-5.69,-6.93,0,*42
1536357989.48,30194,18.0,74016.5,0.45,-5.69,-6.93,0,*45
1536357990.71,30195,18.0,74016.8,0.45,-5.81,-7.01,0,*48
1536357991.9,30196,18.0,74018.5,0.45,-5.55,-6.77,0,*42
1536357993.08,30197,18.0,74018.8,0.45,-5.55,-6.77,0,*43
1536357994.3,30198,18.0,74018.0,0.45,-5.73,-7.05,0,*4C
1536357995.53,30199,18.0,74018.0,0.45,-5.73,-7.01,0,*49
1536357996.75,30200,18.0,74022.0,0.45,-5.73,-7.05,0,*4E
1536357997.93,30201,18.0,74022.3,0.43,-5.51,-6.77,0,*4D
1536357999.16,30202,18.0,74020.5,0.45,-5.69,-6.93,0,*49
1536358000.39,30203,17.94,74016.5,0.45,-5.73,-7.01,0,*49
1536358001.62,30204,18.0,74022.0,0.45,-5.61,-7.01,0,*4D
1536358002.82,30205,18.0,74022.3,0.43,-5.65,-6.89,0,*4F
1536358004.02,30206,18.0,74022.5,0.43,-5.65,-6.89,0,*4C
1536358005.2,30207,17.94,74020.3,0.43,-5.51,-6.77,0,*4B
1536358006.41,30208,17.94,74016.5,0.43,-5.39,-6.63,0,*4F
1536358007.59,30209,17.94,74016.5,0.43,-5.51,-6.81,0,*4C
1536358008.8,30210,18.0,74020.0,0.43,-5.65,-6.89,0,*4B
1536358010.02,30211,18.0,74020.0,0.45,-5.73,-7.01,0,*4A
1536358011.28,30212,18.0,74020.8,0.47,-5.81,-7.01,0,*46
1536358012.49,30213,18.0,74022.0,0.43,-5.77,-7.11,0,*4B
1536358013.71,30214,18.0,74020.5,0.43,-5.65,-6.93,0,*44
1536358014.89,30215,18.0,74020.3,0.43,-5.51,-6.89,0,*49
1536358016.12,30216,18.0,74020.8,0.43,-5.65,-6.93,0,*46
1536358017.35,30217,18.0,74022.3,0.43,-5.65,-6.97,0,*43
1536358018.55,30218,17.94,74020.5,0.43,-5.61,-6.89,0,*47
1536358019.77,30219,18.0,74020.8,0.43,-5.73,-6.97,0,*4A
1536358021.02,30220,18.0,74020.8,0.41,-5.77,-7.05,0,*4C
1536358022.23,30221,17.94,74022.0,0.43,-5.85,-7.11,0,*47
1536358023.44,30222,18.0,74020.0,0.43,-5.85,-7.11,0,*44
1536358024.69,30223,18.0,74024.0,0.41,-5.77,-6.97,0,*45
1536358025.9,30224,18.0,74024.3,0.43,-5.85,-7.19,0,*4A
1536358027.15,30225,18.0,74024.5,0.41,-5.77,-7.05,0,*49
1536358028.39,30226,17.94,74020.0,0.41,-5.73,-6.97,0,*44
1536358029.63,30227,18.0,74020.0,0.41,-5.77,-7.05,0,*4B
1536358030.85,30228,18.0,74026.0,0.43,-5.85,-7.11,0,*4E
1536358032.08,30229,17.94,74022.0,0.43,-5.65,-6.93,0,*4A
1536358033.3,30230,18.0,74020.5,0.41,-5.73,-6.89,0,*4C
1536358034.51,30231,18.0,74020.0,0.43,-5.85,-7.11,0,*46
1536358035.72,30232,18.0,74020.0,0.43,-5.85,-7.11,0,*45
1536358036.97,30233,17.94,74018.5,0.41,-5.73,-6.93,0,*44
1536358038.21,30234,17.94,74020.0,0.41,-5.85,-7.05,0,*44
1536358039.45,30235,18.0,74020.3,0.41,-5.85,-7.19,0,*48
1536358040.68,30236,18.0,74022.5,0.41,-5.85,-7.19,0,*4B
1536358041.9,30237,17.94,74020.0,0.43,-5.77,-7.05,0,*48
1536358043.15,30238,18.0,74022.8,0.41,-5.65,-6.97,0,*4C
1536358044.4,30239,17.94,74022.3,0.41,-5.77,-7.05,0,*44
1536358045.63,30240,18.0,74024.5,0.41,-5.85,-7.11,0,*42
1536358046.86,30241,18.0,74024.0,0.41,-5.85,-7.19,0,*4B
1536358048.09,30242,18.0,74022.8,0.41,-5.77,-7.11,0,*4D
1536358049.33,30243,18.0,74022.0,0.41,-5.73,-7.05,0,*4D
1536358050.58,30244,17.94,74022.3,0.41,-5.73,-6.93,0,*44
1536358051.82,30245,18.0,74024.8,0.41,-5.77,-7.05,0,*4F
1536358053.03,30246,17.94,74022.0,0.41,-5.51,-6.77,0,*4C
1536358054.26,30247,17.94,74020.8,0.41,-5.73,-7.05,0,*49
1536358055.51,30248,18.0,74022.8,0.41,-5.73,-6.93,0,*48
1536358056.74,30249,17.94,74022.5,0.39,-5.77,-6.97,0,*46
1536358057.99,30250,18.0,74022.5,0.41,-5.73,-6.97,0,*45
1536358059.2,30251,17.94,74022.8,0.39,-5.81,-7.15,0,*4D
1536358060.4,30252,18.0,74026.0,0.39,-5.89,-7.15,0,*46
1536358061.62,30253,18.0,74026.3,0.39,-5.89,-7.11,0,*43
1536358062.8,30254,17.94,74020.8,0.39,-5.55,-6.85,0,*49
1536358064.03,30255,17.94,74026.0,0.39,-5.81,-7.01,0,*4C
1536358065.26,30256,18.0,74026.3,0.39,-5.81,-7.01,0,*4F
1536358066.48,30257,18.0,74022.5,0.39,-5.89,-7.11,0,*47
1536358067.69,30258,17.94,74020.0,0.39,-5.81,-7.11,0,*40
1536358068.94,30259,18.0,74026.0,0.37,-5.85,-7.05,0,*4E
1536358070.15,30260,18.0,74024.8,0.39,-5.89,-7.11,0,*43
1536358071.39,30261,18.0,74026.0,0.37,-5.85,-7.15,0,*44
1536358072.62,30262,18.0,74028.3,0.39,-5.81,-7.01,0,*48
1536358073.83,30263,18.0,74030.0,0.37,-5.97,-7.15,0,*45
1536358075.06,30264,18.0,74026.8,0.39,-5.77,-7.01,0,*47
1536358076.3,30265,17.94,74024.5,0.37,-5.73,-7.05,0,*48
1536358077.55,30266,18.0,74026.3,0.37,-5.73,-7.01,0,*4F
1536358078.78,30267,18.0,74026.5,0.37,-5.93,-7.19,0,*49
1536358080.04,30268,18.0,74026.8,0.37,-5.81,-7.01,0,*4C
1536358081.27,30269,17.94,74024.5,0.39,-5.77,-6.93,0,*40
1536358082.48,30270,18.0,74024.5,0.39,-5.81,-7.11,0,*4A
1536358083.73,30271,17.94,74024.5,0.37,-5.73,-6.97,0,*47
1536358084.96,30272,18.0,74028.0,0.39,-5.65,-6.97,0,*4D
1536358086.21,30273,17.94,74024.5,0.37,-5.85,-7.05,0,*46
1536358087.45,30274,17.94,74022.3,0.39,-5.85,-7.01,0,*4B
1536358088.7,30275,18.0,74024.8,0.37,-5.85,-7.05,0,*40
1536358089.89,30276,18.0,74024.0,0.39,-5.55,-6.81,0,*4D
1536358091.1,30277,18.0,74026.5,0.37,-5.55,-6.77,0,*4B
1536358092.34,30278,18.0,74026.0,0.37,-5.73,-7.05,0,*44
1536358093.57,30279,17.94,74024.3,0.39,-5.65,-6.97,0,*46
1536358094.8,30280,18.0,74024.5,0.37,-5.61,-6.89,0,*45
1536358096.03,30281,17.94,74024.8,0.37,-5.61,-6.89,0,*44
1536358097.22,30282,18.0,74030.0,0.39,-5.51,-6.81,0,*42
1536358098.41,30283,18.0,74026.5,0.39,-5.51,-6.81,0,*43
1536358099.59,30284,18.0,74026.8,0.39,-5.51,-6.85,0,*40
1536358100.82,30285,18.0,74028.3,0.39,-5.77,-7.01,0,*48
1536358102.05,30286,18.0,74024.8,0.37,-5.85,-7.19,0,*41
1536358103.27,30287,17.94,74026.8,0.39,-5.89,-7.11,0,*4A
1536358104.51,30288,18.0,74026.8,0.37,-5.73,-7.01,0,*4F
1536358105.76,30289,18.0,74026.8,0.37,-5.73,-6.97,0,*40
1536358106.99,30290,17.94,74022.8,0.37,-5.61,-6.77,0,*45
1536358108.17,30291,18.0,74026.0,0.39,-5.51,-6.73,0,*4D
1536358109.4,30292,18.0,74024.5,0.39,-5.77,-6.97,0,*40
1536358110.62,30293,18.0,74024.8,0.39,-5.81,-7.11,0,*47
1536358111.83,30294,17.94,74022.0,0.39,-5.81,-7.11,0,*40
1536358113.06,30295,18.0,74026.8,0.37,-5.93,-7.15,0,*48
1536358114.3,30296,18.0,74030.8,0.37,-5.85,-7.15,0,*4C
1536358115.53,30297,18.0,74024.0,0.39,-5.77,-7.01,0,*4B
1536358116.77,30298,18.0,74026.0,0.37,-5.73,-7.05,0,*4A
1536358118.0,30299,18.0,74026.8,0.39,-5.69,-6.93,0,*40
1536358119.23,30300,18.0,74026.3,0.37,-5.69,-6.85,0,*48
1536358120.46,30301,17.94,74020.0,0.37,-5.61,-6.89,0,*4D